INMARSAT 4-F2 (SOUTHPAN/PRN 122) 1 28899U 05044A 26255.25135485 -.00000272 00000+0 00000+0 0 9992 2 28899 5.2089 43.7219 0002333 130.7260 50.8032 1.00271168076397 GSAT-8 (GAGAN/PRN 127) 1 37605U 11022A 26255.23384810 .00000071 00000+0 00000+0 0 9992 2 37605 2.3500 80.6681 0005793 156.9482 252.9059 1.00271562054095 LUCH 5A (SDCM/PRN 140) 1 37951U 11074B 26255.30024955 -.00000060 00000+0 00000+0 0 9991 2 37951 8.9694 72.5067 0003883 120.8575 72.9739 1.00272684053926 SES-5 (EGNOS/PRN 136) 1 38652U 12036A 26255.29520838 .00000000 00000+0 00000+0 0 9991 2 38652 0.0150 43.1070 0001973 124.0606 295.3840 1.00270079045338 GSAT-10 (GAGAN/PRN 128) 1 38779U 12051B 26255.14052926 -.00000180 00000+0 00000+0 0 9990 2 38779 0.0556 270.2303 0005620 201.8742 12.6259 1.00273324050974 LUCH 5B (SDCM/PRN 125) 1 38977U 12061A 26255.21972138 -.00000148 00000+0 00000+0 0 9999 2 38977 10.6683 48.9944 0006009 165.3581 199.6580 1.00269791050482 ASTRA 5B (EGNOS/PRN 123) 1 39617U 14011B 26255.22760808 .00000122 00000+0 00000+0 0 9999 2 39617 0.1039 293.5902 0002807 256.5197 266.5756 1.00269300045549 LUCH 5V (SDCM/PRN 141) 1 39727U 14023A 26255.02784053 -.00000281 00000+0 00000+0 0 9997 2 39727 5.3446 68.7928 0002658 139.8943 247.1260 1.00270837045234 GSAT-15 (GAGAN/PRN 139) 1 41028U 15065A 26255.09890750 -.00000272 00000+0 00000+0 0 9990 2 41028 0.0447 264.7267 0001650 239.0915 336.3790 1.00269430039678 EUTELSAT 117 WEST B (WAAS/PRN 131) 1 41589U 16038B 26255.27111492 -.00000026 00000+0 00000+0 0 9999 2 41589 0.0372 14.1157 0000097 184.7473 133.0193 1.00271804037531 SES-15 (WAAS/PRN 133) 1 42709U 17026A 26255.26868824 .00000045 00000+0 00000+0 0 9999 2 42709 0.0490 328.9875 0000366 178.6946 171.1639 1.00269096008307 QZS-2 (QZSS/PRN 194) 1 42738U 17028A 26254.82176778 -.00000190 00000+0 00000+0 0 9996 2 42738 39.3043 241.8780 0750682 270.3972 275.9800 1.00261633008490 QZS-3 (QZSS/PRN 199) 1 42917U 17048A 26254.96301359 -.00000363 00000+0 00000+0 0 9999 2 42917 0.0521 162.5194 0001616 347.4711 314.6970 1.00275047033127 QZS-4 (QZSS/PRN 195) 1 42965U 17062A 26254.56086374 -.00000343 00000+0 00000+0 0 9999 2 42965 40.0519 342.3827 0749699 269.6347 81.1278 1.00274735032660 BEIDOU-3 G1 (PRN 130) 1 43683U 18085A 26255.31413895 -.00000122 00000+0 00000+0 0 9994 2 43683 2.6093 94.9051 0005960 21.2547 148.3193 1.00271639028935 EUTELSAT 5 WEST B (EGNOS/PRN 121) 1 44624U 19067A 26255.29321502 -.00000057 00000+0 00000+0 0 9998 2 44624 0.0807 320.7031 0003118 210.1059 281.0499 1.00271414025307 BEIDOU-3 G2 (PRN 144) 1 45344U 20017A 26255.16737448 -.00000153 00000+0 00000+0 0 9998 2 45344 2.5806 48.3907 0002124 131.9601 311.1309 1.00272263024135 BEIDOU-3 G3 (PRN 143) 1 45807U 20040A 26255.31609514 -.00000367 00000+0 00000+0 0 9994 2 45807 2.6569 67.4129 0002644 281.4958 226.7590 1.00269676022941 GALAXY 30 (WAAS/PRN 135) 1 46114U 20056C 26255.26946824 .00000000 00000+0 00000+0 0 9998 2 46114 0.0228 160.5572 0002207 10.2914 152.4352 1.00271549022166 QZS-1R (QZSS/PRN 196) 1 49336U 21096A 26254.39252825 -.00000260 00000+0 00000+0 0 9995 2 49336 37.6399 78.3072 0743399 269.8635 277.5426 1.00288461017871 QZS-6 (QZSS/PRN 200) 1 62876U 25023A 26255.00999221 -.00000248 00000+0 00000+0 0 9996 2 62876 0.0404 73.6831 0001610 112.5074 258.9253 1.00270149005817